| time (UTC) | temp C | wind direction | speed KPH | gust KPH | rain 1hr cm | rain 24hr cm | rain mn cm | humidity % | barometer mb |
| 20260504200017 | 22 | 225 | 3.2 | 9.7 | 0.00 | 0.00 | 0.00 | 38 | 1006.3 |
| 20260504193017 | 22 | 225 | 4.8 | 19.3 | 0.00 | 0.00 | 0.00 | 38 | 1006.8 |
| 20260504190016 | 23 | 203 | 3.2 | 11.3 | 0.00 | 0.00 | 0.00 | 36 | 1006.9 |
| 20260504183016 | 23 | 203 | 4.8 | 11.3 | 0.00 | 0.00 | 0.00 | 37 | 1007.3 |
| 20260504180016 | 23 | 203 | 4.8 | 14.5 | 0.00 | 0.00 | 0.00 | 34 | 1007.8 |
| 20260504173037 | 22 | 203 | 3.2 | 14.5 | 0.00 | 0.00 | 0.00 | 34 | 1007.8 |
| 20260504050018 | 8 | 0.0 | 0.0 | 0.00 | 0.00 | 0.00 | 56 | 1011.0 | |
| 20260504043017 | 8 | 0.0 | 0.0 | 0.00 | 0.00 | 0.00 | 54 | 1010.9 | |
| 20260504040016 | 8 | 0.0 | 0.0 | 0.00 | 0.00 | 0.00 | 54 | 1010.7 | |
| 20260504033018 | 9 | 0.0 | 0.0 | 0.00 | 0.00 | 0.00 | 52 | 1010.4 | |
| 20260504030017 | 10 | 0.0 | 0.0 | 0.00 | 0.00 | 0.00 | 50 | 1010.2 | |
| 20260504023017 | 10 | 0.0 | 1.6 | 0.00 | 0.00 | 0.00 | 48 | 1010.3 | |
| 20260504020017 | 10 | 0.0 | 0.0 | 0.00 | 0.00 | 0.00 | 46 | 1010.4 | |
| 20260504013017 | 11 | 0.0 | 0.0 | 0.00 | 0.00 | 0.00 | 44 | 1010.3 | |
| 20260504010018 | 11 | 0.0 | 0.0 | 0.00 | 0.00 | 0.00 | 44 | 1010.0 | |
| 20260504003017 | 12 | 0.0 | 1.6 | 0.00 | 0.00 | 0.00 | 41 | 1009.8 | |
| 20260504000037 | 13 | 0.0 | 3.2 | 0.00 | 0.00 | 0.00 | 40 | 1009.4 | |
| 20260503233038 | 13 | 0 | 1.6 | 9.7 | 0.00 | 0.00 | 0.00 | 38 | 1009.3 |
| 20260503230017 | 14 | 0 | 3.2 | 9.7 | 0.00 | 0.00 | 0.00 | 37 | 1008.9 |
| 20260503223016 | 14 | 0 | 1.6 | 9.7 | 0.00 | 0.00 | 0.00 | 36 | 1008.8 |
| 20260503220016 | 14 | 0 | 3.2 | 16.1 | 0.00 | 0.00 | 0.00 | 36 | 1009.0 |
| 20260503213016 | 15 | 0 | 3.2 | 17.7 | 0.00 | 0.00 | 0.00 | 36 | 1008.9 |
| 20260503210016 | 15 | 0 | 1.6 | 9.7 | 0.00 | 0.00 | 0.00 | 36 | 1008.8 |
| 20260503203018 | 15 | 0 | 3.2 | 9.7 | 0.00 | 0.00 | 0.00 | 36 | 1008.9 |